TimeCDT,TemperatureF,Dew PointF,Humidity,Sea Level PressureIn,VisibilityMPH,Wind Direction,Wind SpeedMPH,Gust SpeedMPH,PrecipitationIn,Events,Conditions,WindDirDegrees,DateUTC
12:54 AM,23.0,10.4,59,30.12,10.0,WNW,4.6,-,N/A,,Clear,290,2013-03-21 05:54:00
1:54 AM,24.1,9.0,53,30.14,10.0,Calm,Calm,-,N/A,,Clear,0,2013-03-21 06:54:00
2:54 AM,21.9,10.9,63,30.14,10.0,NNE,6.9,-,N/A,,Clear,20,2013-03-21 07:54:00
3:54 AM,21.9,12.0,66,30.13,10.0,NNE,3.5,-,N/A,,Clear,30,2013-03-21 08:54:00
4:54 AM,21.0,12.0,68,30.11,10.0,NE,5.8,-,N/A,,Clear,40,2013-03-21 09:54:00
5:54 AM,19.9,10.9,68,30.12,10.0,Calm,Calm,-,N/A,,Clear,0,2013-03-21 10:54:00
6:54 AM,19.9,12.0,71,30.12,10.0,NE,5.8,-,N/A,,Clear,50,2013-03-21 11:54:00
7:54 AM,21.9,14.0,72,30.12,10.0,East,4.6,-,N/A,,Clear,80,2013-03-21 12:54:00
8:54 AM,23.0,12.9,65,30.14,10.0,Calm,Calm,-,N/A,,Partly Cloudy,0,2013-03-21 13:54:00
10:54 AM,28.0,10.9,49,30.12,10.0,Calm,Calm,-,N/A,,Partly Cloudy,0,2013-03-21 15:54:00
11:54 AM,30.9,10.9,43,30.09,10.0,Variable,3.5,-,N/A,,Mostly Cloudy,0,2013-03-21 16:54:00
12:54 PM,34.0,10.9,38,30.06,10.0,ENE,5.8,-,N/A,,Scattered Clouds,60,2013-03-21 17:54:00
1:42 PM,35.1,9.0,34,30.00,10.0,SSE,4.6,-,N/A,,Partly Cloudy,160,2013-03-21 18:42:00
1:54 PM,37.9,12.0,35,30.02,10.0,SE,6.9,-,N/A,,Mostly Cloudy,130,2013-03-21 18:54:00
3:54 PM,39.0,12.0,33,29.97,10.0,SSE,6.9,-,N/A,,Overcast,160,2013-03-21 20:54:00
4:54 PM,39.9,12.9,33,29.97,10.0,South,8.1,-,N/A,,Overcast,170,2013-03-21 21:54:00
5:54 PM,37.9,12.0,35,29.97,10.0,ESE,5.8,-,N/A,,Overcast,120,2013-03-21 22:54:00
6:54 PM,37.9,15.1,39,29.96,10.0,South,4.6,-,N/A,,Overcast,170,2013-03-21 23:54:00
7:54 PM,36.0,17.1,46,29.98,10.0,SSW,8.1,-,N/A,,Overcast,200,2013-03-22 00:54:00
8:54 PM,30.9,26.1,82,30.00,10.0,SSW,6.9,-,N/A,,Overcast,210,2013-03-22 01:54:00
9:54 PM,30.9,26.1,82,30.00,10.0,Calm,Calm,-,N/A,,Overcast,0,2013-03-22 02:54:00
10:54 PM,32.0,27.0,82,30.00,10.0,Calm,Calm,-,N/A,,Overcast,0,2013-03-22 03:54:00
11:54 PM,32.0,26.6,80,29.98,10.0,NE,5.8,-,N/A,,Overcast,40,2013-03-22 04:54:00